This is the latest recevied weather packets stored in our database for station/object DG0LHZ-10. If no packets are shown the sender has not sent any weather packets the latest 10 day(s).
| Time | Temp. | Humidity | Pressure | Rain* | Wind** | Luminosity | Snow |
|---|---|---|---|---|---|---|---|
| 1778114985 | 15° C | 50% | 1010.1 hPa | - | - | - | - |
| 1778114085 | 15° C | 49% | 1009.8 hPa | - | - | - | - |
| 1778113185 | 15.56° C | 50% | 1009.8 hPa | - | - | - | - |
| 1778112285 | 15.56° C | 49% | 1009.8 hPa | - | - | - | - |
| 1778111385 | 15.56° C | 50% | 1009.8 hPa | - | - | - | - |
| 1778110485 | 16.11° C | 49% | 1009.7 hPa | - | - | - | - |
| 1778109585 | 16.11° C | 49% | 1009.6 hPa | - | - | - | - |
| 1778108685 | 16.11° C | 48% | 1009.6 hPa | - | - | - | - |
| 1778107785 | 16.67° C | 48% | 1009.3 hPa | - | - | - | - |
| 1778106884 | 16.67° C | 48% | 1009.3 hPa | - | - | - | - |
| 1778105984 | 16.67° C | 48% | 1009.1 hPa | - | - | - | - |
| 1778105084 | 17.22° C | 47% | 1009.2 hPa | - | - | - | - |
| 1778104184 | 17.22° C | 47% | 1009.2 hPa | - | - | - | - |
| 1778103284 | 17.78° C | 46% | 1009 hPa | - | - | - | - |
| 1778102384 | 17.78° C | 46% | 1008.8 hPa | - | - | - | - |
| 1778101484 | 17.78° C | 47% | 1008.8 hPa | - | - | - | - |
| 1778100584 | 18.33° C | 46% | 1008.7 hPa | - | - | - | - |
| 1778099684 | 18.33° C | 46% | 1008.8 hPa | - | - | - | - |
| 1778098784 | 18.89° C | 45% | 1009.1 hPa | - | - | - | - |
| 1778097884 | 19.44° C | 46% | 1008.7 hPa | - | - | - | - |
| 1778096984 | 19.44° C | 45% | 1008.8 hPa | - | - | - | - |
| 1778096084 | 20° C | 45% | 1008.7 hPa | - | - | - | - |
| 1778095184 | 20.56° C | 44% | 1008.7 hPa | - | - | - | - |
| 1778094283 | 20.56° C | 44% | 1008.6 hPa | - | - | - | - |
| 1778093383 | 21.11° C | 44% | 1008.1 hPa | - | - | - | - |
* Rain since midnight (hover to see other rain measurements)
** Current wind speed in m/s (hover to see current wind gust speed)